Time,TemperatureF,DewpointF,PressureIn,WindDirection,WindDirectionDegrees,WindSpeedMPH,WindSpeedGustMPH,Humidity,HourlyPrecipIn,Conditions,Clouds,dailyrainin,SoftwareType,DateUTC
2013-07-18 03:00:00,50.0,-99.9,-100.00,North,-999,-999.0,-999.0,-999,-99.99,,,0.00,,2013-07-18 10:00:00,
2013-07-18 05:00:00,49.0,-99.9,-100.00,North,-999,-999.0,-999.0,-999,-99.99,,,0.00,,2013-07-18 12:00:00,
2013-07-18 05:52:00,49.0,-99.9,-100.00,North,-999,-999.0,-999.0,-999,-99.99,,,0.00,,2013-07-18 12:52:00,
2013-07-18 06:00:00,48.0,-99.9,-100.00,North,-999,-999.0,-999.0,-999,-99.99,,,-99.99,,2013-07-18 13:00:00,
2013-07-18 07:00:00,50.0,-99.9,-100.00,North,-999,-999.0,-999.0,-999,-99.99,,,0.01,,2013-07-18 14:00:00,
2013-07-18 08:00:00,55.0,-99.9,-100.00,North,-999,-999.0,-999.0,-999,-99.99,,,0.00,,2013-07-18 15:00:00,
2013-07-18 09:00:00,61.0,-99.9,-100.00,North,-999,-999.0,-999.0,-999,-99.99,,,0.01,,2013-07-18 16:00:00,
2013-07-18 10:00:00,65.0,-99.9,-100.00,North,-999,-999.0,-999.0,-999,-99.99,,,0.01,,2013-07-18 17:00:00,
2013-07-18 11:00:00,70.0,-99.9,-100.00,North,-999,-999.0,-999.0,-999,-99.99,,,0.00,,2013-07-18 18:00:00,
2013-07-18 12:00:00,74.0,-99.9,-100.00,North,-999,-999.0,-999.0,-999,-99.99,,,0.00,,2013-07-18 19:00:00,
2013-07-18 13:00:00,77.0,-99.9,-100.00,North,-999,-999.0,-999.0,-999,-99.99,,,-99.99,,2013-07-18 20:00:00,
2013-07-18 14:00:00,73.0,-99.9,-100.00,North,-999,-999.0,-999.0,-999,-99.99,,,1.24,,2013-07-18 21:00:00,
2013-07-18 14:52:00,73.0,-99.9,-100.00,North,-999,-999.0,-999.0,-999,-99.99,,,1.24,,2013-07-18 21:52:00,
2013-07-18 15:00:00,73.0,-99.9,-100.00,North,-999,-999.0,-999.0,-999,-99.99,,,1.24,,2013-07-18 22:00:00,
2013-07-18 16:00:00,73.0,-99.9,-100.00,North,-999,-999.0,-999.0,-999,-99.99,,,1.24,,2013-07-18 23:00:00,
2013-07-18 16:43:00,73.0,-99.9,-100.00,North,-999,-999.0,-999.0,-999,-99.99,,,1.24,,2013-07-18 23:43:00,
2013-07-18 16:52:00,73.0,-99.9,-100.00,North,-999,-999.0,-999.0,-999,-99.99,,,1.24,,2013-07-18 23:52:00,
2013-07-18 19:00:00,67.0,-99.9,-100.00,North,-999,-999.0,-999.0,-999,-99.99,,,1.24,,2013-07-19 02:00:00,
2013-07-18 20:00:00,62.0,-99.9,-100.00,North,-999,-999.0,-999.0,-999,-99.99,,,1.24,,2013-07-19 03:00:00,
2013-07-18 21:00:00,59.0,-99.9,-100.00,North,-999,-999.0,-999.0,-999,-99.99,,,1.24,,2013-07-19 04:00:00,
2013-07-18 21:52:00,59.0,-99.9,-100.00,North,-999,-999.0,-999.0,-999,-99.99,,,1.24,,2013-07-19 04:52:00,
2013-07-18 22:00:00,56.0,-99.9,-100.00,North,-999,-999.0,-999.0,-999,-99.99,,,1.24,,2013-07-19 05:00:00,
2013-07-18 23:00:00,55.0,-99.9,-100.00,North,-999,-999.0,-999.0,-999,-99.99,,,1.24,,2013-07-19 06:00:00,